Location: M�rens
(43.7516°N, 0.5374°E)
Time: 19:16:15
(UTC+00:00)

Daily predictions for brighter satellites

Satellite Brightness Start Highest point End
(mag) Time Altitude Azimuth Time Altitude Azimuth Time Altitude Azimuth
BREEZE-M DEB (TANK) 4.4 19:15:51 10° WNW 19:20:04 56° NNE 19:35:14 10° E
SAR-Lupe-4 4.1 19:36:40 10° N 19:40:15 66° WNW 19:43:47 10° SSW
Helios 1A Rocket 3.5 19:37:05 10° S 19:41:10 62° WSW 19:45:18 10° NNW
Resurs 01 Rocket 2.8 19:39:48 10° ESE 19:43:30 27° ENE 19:47:14 10° N
Cosmos 1689 Rocket 4.2 19:41:24 10° N 19:43:53 30° WNW 19:46:23 10° SW
SL-08 ROCKET BODY 4.4 19:43:12 10° N 19:49:06 73° E 19:54:55 10° SSE
FALCON 9 DEB 4.3 19:47:28 10° WNW 19:50:08 28° SW 19:52:47 10° SSE
IRS-1A Rocket 4.5 19:45:01 10° SSE 19:50:42 66° ENE 19:56:31 10° N
Ariane Rocket 3.1 19:49:26 10° SSE 19:54:26 66° ENE 19:59:28 10° N
CZ-4 R/B 4.4 19:53:12 10° WSW 19:55:13 13° W 19:57:14 10° WNW
Cosmos 2084 4.5 19:53:52 10° SSE 19:57:06 23° ESE 20:00:23 10° ENE
BREEZE-M R/B 1.8 19:57:02 10° WSW 19:59:59 82° NNW 20:02:24 10° ENE
CZ-4C R/B 3.9 19:57:06 10° NNW 20:03:33 37° NE 20:10:59 10° ESE
Cosmos 1437 Rocket 3.0 20:07:45 10° SSW 20:11:37 73° WNW 20:15:34 10° N
Cosmos 2082 Rocket 4.3 20:10:30 10° N 20:13:35 15° NE 20:16:40 10° ENE
Cosmos 1933 3.3 20:11:33 10° S 20:15:32 63° E 20:19:31 10° NNE
Cosmos 1354 Rocket 4.1 20:10:36 10° S 20:15:40 55° ESE 20:20:49 10° NNE
Cosmos 968 Rocket 4.2 20:11:48 10° SW 20:16:58 57° WNW 20:22:08 10° NNE
Cosmos 1805 Rocket 3.6 20:12:55 10° N 20:17:17 84° W 20:21:38 10° S
SPOT 1/Viking Rocket 4.4 20:14:13 14° SE 20:18:10 35° ENE 20:22:51 10° N
IGS 5A 3.7 20:17:52 14° SSE 20:21:14 53° ENE 20:25:17 10° N
NOSS 3-3 (A) 4.0 20:15:58 10° SSW 20:21:22 50° ESE 20:27:28 10° NE
NOSS 3-3 (C) 4.0 20:16:04 10° SSW 20:21:29 49° ESE 20:27:35 10° NE
Meteor 1-20 Rocket 4.2 20:16:10 10° N 20:21:48 76° E 20:27:12 11° SSE
Intercosmos 25 Rocket 4.3 20:17:37 10° NNW 20:23:38 64° W 20:27:29 10° S
Cosmos 1633 Rocket 3.6 20:20:01 10° N 20:24:13 42° ENE 20:27:09 18° SE
OBJECT-B 3.1 20:27:52 10° SSW 20:30:29 22° W 20:33:07 10° NW
ARIANE 5 R/B 3.8 20:29:17 18° ESE 20:31:34 27° ENE 20:35:15 10° N
SPOT 3 Rocket 3.5 20:27:49 14° SSE 20:32:18 75° ENE 20:37:28 10° N
Cosmos 1782 3.0 20:29:19 13° SSE 20:32:41 52° E 20:36:35 10° NNE
Cosmos 1328 Rocket 4.0 20:29:48 15° SSE 20:33:07 43° E 20:37:19 10° NNE
Resurs 1-3 4.4 20:33:13 10° S 20:37:29 50° W 20:41:46 10° NNW
Cosmos 2278 Rocket 2.9 20:34:03 14° SSE 20:38:04 32° ESE 20:43:02 10° NE
Cosmos 1602 3.7 20:35:29 10° N 20:39:21 72° E 20:41:47 22° SSE
MetOp-B 4.2 20:36:11 17° SSE 20:40:18 69° ENE 20:45:38 10° N
Cosmos 883 Rocket 4.5 20:35:25 10° S 20:41:42 81° E 20:48:05 10° N
Cosmos 1437 2.9 20:41:33 35° ESE 20:42:01 38° E 20:44:41 10° NNE
CZ-2C R/B 3.7 20:38:27 10° NNE 20:42:55 61° ESE 20:46:57 13° S
Cosmos 1745 Rocket 4.4 20:37:02 10° NNW 20:43:09 63° W 20:49:11 10° S
Cosmos 1844 Rocket 4.1 20:39:47 10° SW 20:45:01 41° WNW 20:50:19 10° NNE
Cosmos 1709 Rocket 3.9 20:39:39 10° N 20:45:47 80° E 20:50:44 16° SSE
Cosmos 1666 Rocket 3.6 20:47:19 10° N 20:51:44 80° W 20:54:44 20° S
Terra 3.3 20:49:51 18° E 20:51:45 23° ENE 20:55:30 10° NNE
SPOT 5 3.9 20:50:15 23° ESE 20:52:40 35° ENE 20:57:25 10° N
Meteor 2-17 Rocket 4.5 20:47:20 10° N 20:53:32 84° W 20:58:38 16° S
Cosmos 783 Rocket 4.4 20:49:35 10° NNW 20:54:52 89° ENE 20:58:02 24° SSE
GPS 2-04 Rocket1 4.2 20:53:56 10° SW 20:56:25 21° S 20:56:25 21° S
USA 290 3.8 20:54:54 10° NW 20:57:47 29° WSW 20:59:36 17° SSW
Cosmos 773 Rocket 4.0 20:52:34 10° NNW 20:57:54 76° ENE 21:00:48 27° SSE
Cosmos 1242 Rocket 3.9 20:56:28 10° SW 20:59:50 38° WNW 21:03:11 10° N
X-37B 0.6 20:56:54 10° W 21:00:04 66° SSW 21:00:37 52° SE
USA 245 2.4 21:01:54 51° NNE 21:01:54 51° NNE 21:03:45 10° N
Spot 2 Rocket 3.5 20:59:31 28° SE 21:02:09 64° ENE 21:07:10 10° N
Cosmos 1812 2.9 21:02:05 38° SE 21:03:11 51° E 21:06:57 10° NNE
Cosmos 2315 Rocket 4.1 20:59:25 10° S 21:05:48 82° W 21:12:14 10° N
SL-4 R/B 4.4 21:03:05 10° W 21:05:54 16° SW 21:08:01 13° SSW
ATLAS 5 CENTAUR R/B 2.7 21:00:30 10° NW 21:06:11 61° WSW 21:10:11 24° SSE
SJ 16-02 1.9 21:05:54 34° SE 21:06:40 37° ESE 21:10:46 10° NE
BREEZE-M DEB (TANK) 3.5 21:02:12 10° WNW 21:09:06 43° SW 21:10:06 33° S
USA 307 4.1 21:07:51 10° NW 21:11:49 36° NNE 21:14:12 20° E
ERS-1 Rocket 3.3 21:10:30 32° SE 21:12:30 52° ENE 21:17:23 10° N
Meteor 1-5 Rocket 4.1 21:11:56 10° N 21:17:20 70° ENE 21:19:34 35° SSE
Cosmos 1666 2.9 21:13:43 10° N 21:17:20 47° ENE 21:17:42 45° E
Resurs 01 Rocket 3.2 21:16:26 13° SSW 21:19:53 31° W 21:23:52 10° NNW
Cosmos 1833 Rocket 2.7 21:15:13 10° NNW 21:20:53 74° ENE 21:23:15 36° SE
deb Kosmos-1763 4.3 21:17:59 10° N 21:21:25 47° ENE 21:21:39 46° E
JB-3 4.1 21:19:04 10° NNE 21:22:58 81° ESE 21:23:58 48° S
Cosmos 2228 Rocket 3.7 21:23:47 36° E 21:24:01 36° E 21:28:05 10° NNE
USA 308 3.9 21:21:22 10° NW 21:25:27 41° NNE 21:27:15 27° ENE
CREW DRAGON DEMO-1 DEB 4.2 21:23:19 10° NW 21:25:38 28° NNE 21:25:38 28° NNE
Cosmos 1151 Rocket 4.3 21:21:51 10° SSW 21:25:56 39° WNW 21:30:05 10° N
Cosmos 1777 Rocket 4.1 21:22:36 10° SSW 21:27:47 74° WNW 21:33:01 10° NNE
BREEZE M DEB (TANK) 2.6 21:37:28 10° WNW 21:40:27 40° N 21:40:27 40° N
Cosmos 1515 Rocket 4.4 21:50:22 26° SW 21:52:29 46° WNW 21:56:44 10° N
CZ-4C R/B 3.1 21:45:20 10° NW 21:52:43 70° WSW 21:56:21 37° SSE
Cosmos 1869 Rocket 3.5 21:54:17 10° N 21:58:36 68° E 21:58:40 68° E
Cosmos 2082 Rocket 2.1 21:53:01 10° NNW 21:58:40 76° ENE 21:59:58 54° SE
Cosmos 990 Rocket 4.1 22:00:06 52° ESE 22:00:10 52° ESE 22:05:16 10° NNE
COSMOS 2406 3.6 21:56:33 10° NNW 22:02:04 53° WSW 22:03:39 41° SSW
Cosmos 1544 4.2 22:00:31 10° N 22:03:05 36° NE 22:03:05 36° NE
NOSS 3-4 (A) 3.8 21:57:31 10° NW 22:04:36 83° NE 22:07:31 42° SE
NOSS 3-4 (C) 3.8 21:57:39 10° NW 22:04:43 82° NE 22:07:38 42° SE
USA 305 2.9 22:02:14 10° NW 22:06:30 78° NNE 22:06:30 78° NNE
Meteor 1-27 Rocket 3.7 22:05:24 51° S 22:06:59 83° E 22:12:56 10° NNE
SL-24 DEB 4.0 22:07:10 74° S 22:07:34 86° W 22:12:12 10° N
ARIANE 5 R/B 4.0 22:06:49 25° WSW 22:07:57 28° W 22:11:43 10° NW
Cosmos 1271 Rocket 3.5 22:08:05 45° WSW 22:08:38 48° WNW 22:12:32 10° N
Cosmos 2327 Rocket 4.5 22:04:00 10° N 22:10:27 87° E 22:12:18 50° S
Cosmos 1707 Rocket 4.1 22:16:19 48° ENE 22:16:19 48° ENE 22:19:56 10° NNE
ATLAS 2AS CENTAUR R/B 3.0 22:10:51 10° NNW 22:18:11 63° NE 22:20:39 40° ESE
ALOS 2 4.5 22:20:18 19° ENE 22:20:21 20° ENE 22:23:30 10° NNE
Cosmos 2278 Rocket 3.4 22:16:43 10° SW 22:22:01 40° WNW 22:27:20 10° NNE
Cosmos 2112 Rocket 4.1 22:17:36 10° NNW 22:22:56 64° ENE 22:23:29 60° E
Cosmos 2154 Rocket 4.1 22:19:19 10° NNW 22:25:38 70° W 22:27:20 49° SSW
USA 306 3.3 22:21:29 10° NW 22:25:01 59° WNW 22:25:01 59° WNW
Terra 2.6 22:28:43 40° WSW 22:29:15 41° W 22:33:46 10° NNW
Cosmos 158 Rocket 4.2 22:24:40 10° NNW 22:29:24 51° WSW 22:29:37 50° WSW
SPOT 5 4.3 22:29:28 28° WSW 22:30:43 31° W 22:35:21 10° NNW
Cosmos 2369 Rocket 3.6 22:32:38 24° E 22:32:38 24° E 22:35:56 10° NE
Cosmos 1943 Rocket 2.5 22:33:19 49° E 22:33:19 49° E 22:38:15 10° NE
Meteor 1-11 Rocket 4.4 22:28:07 10° NNW 22:33:52 51° W 22:35:20 42° SW
Cosmos 1340 Rocket 3.4 22:33:56 10° NNW 22:37:15 56° NNW 22:37:15 56° NNW
SL-24 R/B - RUBIN 2 4.0 22:35:33 10° NNW 22:41:00 65° NE 22:41:12 64° ENE
Cosmos 962 Rocket 4.3 22:35:13 10° N 22:41:23 89° WSW 22:42:18 66° S
Meteor 2-9 Rocket 4.5 22:36:28 10° N 22:42:08 53° ENE 22:42:35 52° E
SJ 16-02 3.5 22:42:49 14° WSW 22:45:21 23° WNW 22:48:53 10° N
Cosmos 1937 Rocket 3.4 22:47:49 75° ENE 22:47:49 75° ENE 22:52:40 10° NNE
Spot 4 4.0 22:47:43 64° ENE 22:47:43 64° ENE 22:52:22 10° N
Cosmos 1733 Rocket 3.5 22:45:05 10° N 22:48:36 57° N 22:48:36 57° N
Cosmos 1680 Rocket 3.6 22:45:08 10° NNW 22:50:25 65° WSW 22:50:28 65° WSW
Cosmos 1536 4.3 22:47:34 10° NNW 22:50:40 31° WNW 22:50:40 31° WNW
USA 307 4.3 22:47:46 10° WNW 22:50:17 32° WNW 22:50:17 32° WNW
Cosmos 44 3.4 22:48:53 10° NNW 22:54:20 80° NE 22:54:22 80° ENE
Meteor 2-4 Rocket 4.3 22:58:14 44° E 22:58:14 44° E 23:03:22 10° NNE
Cosmos 1461 4.4 23:02:50 33° ENE 23:02:50 33° ENE 23:05:32 10° NE
Cosmos 858 Rocket 4.4 23:02:04 81° NW 23:02:04 81° NW 23:07:15 10° NNE
Cosmos 2181 Rocket 3.8 23:02:06 73° S 23:02:43 87° E 23:08:53 10° N
Cosmos 1743 4.3 23:01:09 10° NNW 23:03:39 32° NW 23:03:39 32° NW
Cosmos 1818 3.6 22:59:49 10° NNW 23:05:18 69° NE 23:05:31 68° ENE
RESURS DK-1 4.5 23:02:18 10° N 23:05:22 19° NE 23:05:36 19° NE
Cosmos 1975 4.1 23:01:44 10° N 23:04:22 37° NNE 23:04:22 37° NNE
COBE Rocket 4.5 23:11:51 50° ENE 23:11:51 50° ENE 23:16:39 10° N
Cosmos 2366 rocket 3.8 23:08:22 10° N 23:14:34 88° W 23:15:06 76° S
Cosmos 2341 Rocket 4.4 23:13:17 10° NNW 23:19:28 53° W 23:20:23 49° WSW
Cosmos 2297 4.3 23:18:27 44° WSW 23:19:42 53° WNW 23:25:17 10° NNE
Cosmos 1238 Rocket 4.0 23:15:43 10° NNW 23:21:45 58° W 23:21:58 57° W
Meteor 1-18 Rocket 4.1 23:22:00 76° W 23:22:10 77° W 23:27:48 10° N
ATLAS CENTAUR R/B 4.0 23:36:43 11° ENE 23:36:43 11° ENE 23:36:52 10° ENE
Cosmos 489 Rocket 4.4 23:28:30 10° NNW 23:34:43 72° WSW 23:34:57 71° SW
Cosmos 2218 Rocket 4.1 23:29:20 10° NNW 23:35:30 60° W 23:36:03 58° WSW
Cosmos 2082 Rocket 4.2 23:38:48 10° WNW 23:41:48 16° W 23:41:48 16° W
Cosmos 372 Rocket 4.4 23:48:14 54° WNW 23:48:14 54° WNW 23:53:08 10° NNE
SeaSat 1 3.1 23:47:55 10° NE 23:51:43 47° ENE 23:51:43 47° ENE
Okean 1-7 4.0 23:55:19 44° N 23:55:19 44° N 23:58:20 10° N
